Hourly Weather Roundup
Issued by NWS Central Illinois

Home | Current Version | Previous Version | Text Only | Print | Product List | Glossary On
Versions: 1 2 3 4 5 6 7 8 9 10 11 12 13 14 15 16 17 18 19 20 21 22 23 24 25 26 27 28 29 30 31 32 33 34 35 36 37 38 39 40 41 42 43 44 45 46 47 48 49 50
827
NZUS43 KILX 230010
HWRILX

AREA WEATHER ROUNDUP
NATIONAL WEATHER SERVICE, LINCOLN IL
600 PM CST SUN JAN 22 2017


CITY           SKY/WX    TMP DP  RH WIND       PRES   REMARKS
BLOOMINGTON    CLOUDY    40  37  89 N17       29.61S WCI  31
6HR MIN TEMP:  40; 6HR MAX TEMP:  46; 6HR PCP: TRACE;

CHAMPAIGN      CLOUDY    45  42  89 N22G33    29.55S FOG
6HR MIN TEMP:  45; 6HR MAX TEMP:  54;

DANVILLE       CLOUDY    44  44  99 N17       29.53S FOG
6HR MIN TEMP:  44; 6HR MAX TEMP:  53;

DECATUR        PTCLDY    44  41  89 N17G23    29.57S
6HR MIN TEMP:  44; 6HR MAX TEMP:  50;

EFFINGHAM      CLOUDY    48  48 100 NW16G23   29.54R FOG
6HR MIN TEMP:  48; 6HR MAX TEMP:  62;

FLORA          CLOUDY    53  50  89 N17G26    29.50R
6HR MIN TEMP:  53; 6HR MAX TEMP:  64;

GALESBURG      CLOUDY    38  37  99 NW7       29.68R FOG     WCI  32
6HR MIN TEMP:  38; 6HR MAX TEMP:  42;

JACKSONVILLE   MOCLDY    41  38  86 NW13      29.63R WCI  34
6HR MIN TEMP:  41; 6HR MAX TEMP:  50;

LACON          CLOUDY    40  36  87 N6        29.65R
6HR MIN TEMP:  40; 6HR MAX TEMP:  43;

LAWRENCEVILLE  CLOUDY    58  51  78 N9        29.47R
6HR MIN TEMP:  58; 6HR MAX TEMP:  61;

LITCHFIELD     MOCLDY    45  41  85 N23G30    29.56R
6HR MIN TEMP:  45; 6HR MAX TEMP:  51;

$$


CITY           SKY/WX    TMP DP  RH WIND       PRES   REMARKS
LINCOLN        PTCLDY    42  38  86 N9        29.62R
6HR MIN TEMP:  42; 6HR MAX TEMP:  51;

MACOMB         CLOUDY    38  37  97 NW13      29.71R FOG     WCI  30
6HR MIN TEMP:  38; 6HR MAX TEMP:  43;

MATTOON        FOG       45  45 100 N22G28    29.53R VSB 1
6HR MIN TEMP:  45; 6HR MAX TEMP:  59;

MT CARMEL AP   CLOUDY    59  49  69 N9        29.46R
6HR MIN TEMP:  58; 6HR MAX TEMP:  62;

OLNEY-NOBLE AP PTCLDY    52  52 100 N15       29.50R
PARIS          CLOUDY    47  47 100 N16G22    29.53R FOG
6HR MIN TEMP:  47; 6HR MAX TEMP:  62;

PEORIA         CLOUDY    41  35  79 N7        29.65R
6HR MIN TEMP:  41; 6HR MAX TEMP:  48;

PONTIAC        CLOUDY    41  40  96 N16       29.63S WCI  33
6HR MIN TEMP:  41; 6HR MAX TEMP:  44;

RANTOUL        CLOUDY    46  44  93 N22G28    29.56F FOG
6HR MIN TEMP:  46; 6HR MAX TEMP:  48;

SPRINGFIELD    CLEAR     44  37  76 N16       29.61S
6HR MIN TEMP:  44; 6HR MAX TEMP:  52;

TAYLORVILLE    CLOUDY    44  40  85 N26       29.58R
6HR MIN TEMP:  44; 6HR MAX TEMP:  51;

$$

...REGIONAL REPORTS...


CITY           SKY/WX    TMP DP  RH WIND       PRES   REMARKS
CHICAGO O`HARE CLOUDY    42  38  85 N9        29.65R
KANKAKEE       PTCLDY    41  38  91 N9        29.63R WCI  35
MOLINE         CLOUDY    40  35  83 NW7       29.68R
MOUNT STERLING CLOUDY    38  36  92 NW15      29.67R FOG     WCI  29
MOUNT VERNON   CLOUDY    55  50  83 N8G16     29.51R
PITTSFIELD     CLOUDY    41  38  89 NW14      29.67R WCI  33
QUINCY         CLOUDY    38  35  89 NW13      29.69R WCI  30
ROCKFORD       CLOUDY    37  33  85 NE8       29.68R WCI  31
$$


CITY           SKY/WX    TMP DP  RH WIND       PRES   REMARKS
BURLINGTON     CLOUDY    37  35  92 NW10      29.70R WCI  30
CEDAR RAPIDS   CLOUDY    37  35  92 NW12      29.72R WCI  29
DES MOINES     CLOUDY    38  35  89 NW12      29.78R WCI  30
KIRKSVILLE     CLOUDY    39  36  89 NW8       29.73R WCI  33
OTTUMWA        CLOUDY    38  35  89 NW13      29.73S WCI  30
ST LOUIS       PTCLDY    48  39  71 N14G26    29.57R
$$


CITY           SKY/WX    TMP DP  RH WIND       PRES   REMARKS
TERRE HAUTE    PTCLDY    54  49  83 N18       29.50R
EVANSVILLE     CLOUDY    59  49  69 N6        29.43R
INDIANAPOLIS   MOCLDY    56  51  84 N14       29.49R
LAFAYETTE      CLOUDY    46  46 100 N10       29.55R FOG
MADISON        CLOUDY    38  37  97 NW5       29.69R WCI  34
MILWAUKEE      CLOUDY    42  37  82 NW6       29.67R
$$






USA.gov is the U.S. government's official web portal to all federal, state and local government web resources and services.